De Queen, AR

3:56 PM CDT on June 22, 2017 (GMT -0500)
Helms Sevier County

Weather History for KDEQ - November, 2011

Change the Weather History Date:

Wednesday, November 9, 2011

  Actual Average Record
Temperature  
Mean Temperature 47 °F 55 °F  
Max Temperature 60 °F 68 °F 84 °F (2005)
Min Temperature 34 °F 42 °F 18 °F (1991)
Degree Days  
Heating Degree Days 18 10  
Month to date heating degree days 48 79  
Since 1 July heating degree days 198 212  
Cooling Degree Days 0 0  
Month to date cooling degree days 1 5  
Year to date cooling degree days 2495 1939  
Moisture  
Dew Point 37 °F    
Average Humidity 63    
Maximum Humidity 93    
Minimum Humidity 33    
Precipitation  
Precipitation 0.00 in 0.17 in 1.73 in (1940)
Month to date precipitation 0.35 1.52  
Year to date precipitation 28.32 41.24  
Snow  
Snow 0.00 in - - ()
Month to date snowfall 0.0  
Since 1 July snowfall 0.0  
Since 1 September snowfall 0.0  
Snow Depth 0.00 in    
Sea Level Pressure  
Sea Level Pressure 30.21 in    
Wind  
Wind Speed 6 mph (WNW)    
Max Wind Speed 18 mph    
Max Gust Speed 28 mph    
Visibility 9 miles    
Events      
T = Trace of Precipitation, MM = Missing Value Source: NWS Daily Summary

Daily Weather History Graph

Daily Weather History Graph

Search for Another Location

Airport or City:

Trip Planner

Search our weather history database for the weather conditions in past years. The results will help you decide how hot, cold, wet, or windy it might be!

Date:

Astronomy

Nov. 09, 2011 Rise Set
Actual Time 6:44 AM CST 5:18 PM CST
Civil Twilight 6:18 AM CST 5:44 PM CST
Nautical Twilight 5:48 AM CST 6:14 PM CST
Astronomical Twilight 5:18 AM CST 6:43 PM CST
Moon 4:30 PM CST (11/9) 5:41 AM CST (11/9)
Length of Visible Light 11h 26m
Length of Day
10h 33m
Waxing Gibbous, 99% of the Moon is Illuminated
Nov 9
Waxing Gibbous
Nov 10
Full
Nov 18
Last Quarter
Nov 25
New
Dec 2
First Quarter

Hourly Weather History & Observations

Time (CST) Temp. Windchill Dew Point Humidity Pressure Visibility Wind Dir Wind Speed Gust Speed Precip Events Conditions
12:43 AM 48.2 °F - 46.4 °F 93% 30.04 in 10.0 mi WSW 4.6 mph - N/A   Mostly Cloudy
12:53 AM 48.9 °F - 46.9 °F 93% 30.04 in 10.0 mi SW 5.8 mph - N/A   Overcast
1:07 AM 50.0 °F - 46.4 °F 87% 30.04 in 10.0 mi SW 6.9 mph - N/A   Overcast
1:53 AM 50.0 °F - 46.0 °F 86% 30.04 in 10.0 mi SW 6.9 mph - N/A   Overcast
2:38 AM 51.8 °F - 44.6 °F 76% 30.06 in 10.0 mi WSW 8.1 mph - N/A   Overcast
2:53 AM 51.1 °F - 44.1 °F 77% 30.06 in 10.0 mi West 6.9 mph - N/A   Overcast
3:16 AM 51.8 °F - 44.6 °F 76% 30.07 in 10.0 mi West 6.9 mph - N/A   Overcast
4:53 AM 48.0 °F - 37.9 °F 68% 30.11 in 10.0 mi West 8.1 mph - N/A   Mostly Cloudy
6:53 AM 46.0 °F 42.5 °F 37.0 °F 71% 30.17 in 10.0 mi West 6.9 mph - N/A   Scattered Clouds
8:53 AM 48.9 °F - 37.0 °F 64% 30.24 in 10.0 mi NW 13.8 mph 24.2 mph N/A   Clear
9:53 AM 52.0 °F - 37.0 °F 57% 30.26 in 10.0 mi WNW 9.2 mph 21.9 mph N/A   Clear
10:53 AM 55.0 °F - 37.9 °F 53% 30.27 in 10.0 mi NW 13.8 mph 26.5 mph N/A   Clear
11:53 AM 57.0 °F - 36.0 °F 45% 30.26 in 10.0 mi Variable 6.9 mph 18.4 mph N/A   Clear
12:53 PM 57.9 °F - 33.1 °F 39% 30.25 in 10.0 mi WNW 15.0 mph 25.3 mph N/A   Clear
1:42 PM 59.0 °F - 33.8 °F 39% 30.25 in 10.0 mi WNW 12.7 mph 19.6 mph N/A   Partly Cloudy
1:53 PM 59.0 °F - 33.1 °F 38% 30.25 in 10.0 mi NW 9.2 mph 18.4 mph N/A   Partly Cloudy
2:53 PM 59.0 °F - 32.0 °F 36% 30.24 in 10.0 mi NNW 8.1 mph 17.3 mph N/A   Clear
3:53 PM 59.0 °F - 30.9 °F 35% 30.24 in 10.0 mi NW 10.4 mph 19.6 mph N/A   Clear
4:53 PM 55.9 °F - 30.9 °F 39% 30.25 in 10.0 mi NNW 6.9 mph - N/A   Clear
5:53 PM 52.0 °F - 33.1 °F 49% 30.28 in 10.0 mi Calm Calm - N/A   Clear
6:53 PM 50.0 °F - 33.1 °F 52% 30.29 in 10.0 mi Calm Calm - N/A   Clear
7:53 PM 44.1 °F - 35.1 °F 71% 30.30 in 10.0 mi Calm Calm - N/A   Clear
8:53 PM 39.9 °F - 36.0 °F 86% 30.32 in 10.0 mi Calm Calm - N/A   Clear
9:53 PM 37.9 °F - 35.1 °F 89% 30.33 in 10.0 mi Calm Calm - N/A   Clear
10:53 PM 37.0 °F - 34.0 °F 89% 30.33 in 10.0 mi Calm Calm - N/A   Clear
11:53 PM 35.1 °F - 33.1 °F 92% 30.35 in 3.0 mi Calm Calm - N/A   Clear
11:56 PM 35.6 °F - 33.8 °F 93% 30.35 in 1.8 mi Calm Calm - N/A   Clear